Miscellaneous Local Product
Issued by NWS Hastings, NE

Home | Current Version | Previous Version | Graphics & Text | Print | Product List | Glossary On
Versions: 1 2 3 4 5 6 7 8 9 10 11 12 13 14 15 16 17 18 19 20 21 22 23 24 25 26 27 28 29 30 31 32 33 34 35 36 37 38 39 40 41 42 43 44 45 46 47 48 49 50
165
AXUS43 KGID 222002
MISGRI

GID CWA HOURLY WEATHER ROUNDUP
NATIONAL WEATHER SERVICE HASTINGS NE
300 PM CDT WED MAR 22 2017

NOTE: "FAIR" INDICATES FEW OR NO CLOUDS BELOW 12,000 FEET WITH NO
SIGNIFICANT WEATHER AND/OR OBSTRUCTIONS TO VISIBILITY.

...SOUTH CENTRAL NEBRASKA...

CITY           SKY/WX    TMP DP  RH WIND       PRES   REMARKS
GRAND ISLAND   CLOUDY    52  22  30 S20G26    30.17F
HASTINGS       CLOUDY    54  22  28 SE17      30.17F
KEARNEY        CLOUDY    54  25  32 S20G26    30.15F
ORD            CLOUDY    48  19  31 SE18G26   30.13F
YORK           PTSUNNY   54  18  24 SE14      30.19F
AURORA         CLOUDY    55  20  25 S17       30.18F
LEXINGTON      CLOUDY    50  26  40 S17G23    30.11F
HOLDREGE       CLOUDY    52  24  33 S18       30.12F
HEBRON         CLOUDY    55  17  22 SE15G22   30.19F

...NEBRASKA PANHANDLE...

CITY           SKY/WX    TMP DP  RH WIND       PRES   REMARKS
CHADRON        CLOUDY    64  36  35 S18       29.84F
ALLIANCE       CLOUDY    60  35  39 S23G29    29.91F
SCOTTSBLUFF    SUNNY     64  33  31 SE15G22   29.88F
SIDNEY         SUNNY     62  35  36 S20       29.95F

...WESTERN AND NORTH CENTRAL NEBRASKA...

CITY           SKY/WX    TMP DP  RH WIND       PRES   REMARKS
VALENTINE      CLOUDY    53  30  41 S24G38    29.98F
AINSWORTH      CLOUDY    47  30  50 S24G31    30.04F
ONEILL           N/A    N/A N/A N/A MISG        N/A
BROKEN BOW     CLOUDY    49  24  37 S23G30    30.10F
IMPERIAL       SUNNY     58  34  40 SE21G31   30.00F
NORTH PLATTE   CLOUDY    49  28  44 S16G25    30.07F
MCCOOK         CLOUDY    51  31  46 S18       30.09F

...EASTERN NEBRASKA...

CITY           SKY/WX    TMP DP  RH WIND       PRES   REMARKS
NORFOLK        CLOUDY    48  18  30 SE21G28   30.20F
SO SIOUX CITY  CLOUDY    40  24  53 SE17      30.30F WCI  31
TEKAMAH        CLOUDY    48  22  35 SE16      30.29F
COLUMBUS       CLOUDY    52  18  25 SE16G22   30.24F
ALBION         CLOUDY    52  13  21 SE15G23   30.18F
OMAHA EPPLEY   PTSUNNY   51  18  27 SE20      30.29F
MILLARD        CLOUDY    50  26  39 SE14      30.28F
LINCOLN        CLOUDY    53  19  26 SE16      30.26F
NEBRASKA CITY  CLOUDY    52  13  21 SE13G20   30.27F
BEATRICE       CLOUDY    57  20  23 SE9G22    30.22F
FALLS CITY     MOSUNNY   56  23  27 E14G24    30.26F

...NORTHERN KANSAS...

CITY           SKY/WX    TMP DP  RH WIND       PRES   REMARKS
GOODLAND       CLOUDY    55  36  48 S24       30.03F
HILL CITY      CLOUDY    54  31  41 S12G24    30.13F
NORTON         CLOUDY    50  25  37 SE15G23   30.11F
PHILLIPSBURG   CLOUDY    54  27  35 SE17      30.15F
HAYS             N/A     51  29  42 SE14      30.15F
RUSSELL        CLOUDY    52  30  43 SE15      30.15F
CONCORDIA      CLOUDY    53  23  31 SE15G26   30.18F
SALINA         CLOUDY    59  26  28 SE16      30.17F
TOPEKA         SUNNY     58  21  24 E13G26    30.24F



USA.gov is the U.S. government's official web portal to all federal, state and local government web resources and services.